Location: Arpaise
(41.0333°N, 14.7333°E)
Time: 22:09:48
(UTC+00:00)

Cosmos 846 Rocket - Pass Details

Date: 23 January 2021
Orbit: 948 x 991 km, 82.9° (Epoch: 06 March)

Event Time Altitude Azimuth Distance (km) Brightness Sun altitude
Rises 19:42:17 0° 233° (SW) 3,666 9.0 -40.4°
Reaches altitude 10° 19:45:46 10° 252° (WSW) 2,715 8.4 -41.0°
Maximum altitude 19:49:43 17° 292° (WNW) 2,220 7.9 -41.8°
Drops below altitude 10° 19:53:41 10° 333° (NNW) 2,706 8.1 -42.5°
Sets 19:57:11 0° 352° (N) 3,649 8.7 -43.1°
